Retour au catalogue

THORAD DELTA 1 DEB

ActifSSO
NORAD 8172·DEBRIS·🇺🇸 United States

Lancé Nov 15, 1974 depuis Vandenberg Space Force Base

Loading…

Prochains Passages (prochaines 24 heures)

TLE

FraisSource: Space-Track

Époque: Sep 14, 2026, 12:49 UTC

1 08172U 74089AN  26257.53453966 -.00000049  00000-0 -10648-4 0  9997
2 08172 101.9772 276.8246 0052762 280.1728 235.0019 12.54932675374022

Suivez THORAD DELTA 1 DEB en temps réel avec AllMySat

Download on the App Store